This demonstration page uses our WeatherBlox Daily Observations layout. Learn more.

Left ArrowRight Arrow

44.8408, -93.29828

Hourly Observations for November 27, 2016

Temp ( °F °C ) Dew Point ( °F °C ) Humidity (%) Winds ( mph kmh ) Pressure ( in mb ) Visibility ( mi km ) Precip ( " mm )
12:53 am 00:53 Partly Cloudy with Mist and Fog 32 0 30 -1.1 92 92 Calm 29.99 1016 5 8 0.00 0.00
1:53 am 01:53 Partly Cloudy with Mist and Fog 33 0.6 30 -1.1 89 89 ESE 3 6 29.97 1015 3 5 0.00 0.00
2:53 am 02:53 Partly Cloudy with Mist and Fog 31 -0.6 29 -1.7 92 92 E 6 9 29.96 1014 3 5 0.00 0.00
3:53 am 03:53 Mostly Cloudy with Mist and Fog 31 -0.6 29 -1.7 92 92 ESE 3 6 29.94 1014 4 6 0.00 0.00
4:28 am 04:28 Mostly Cloudy with Mist and Fog 30 -1 28 -2 93 93 ESE 3 6 29.97 1015 4 6 0.00 0.00
4:39 am 04:39 Mostly Cloudy with Mist and Fog 29 -1.7 28 -2.2 96 96 SE 6 9 29.97 1015 3 5 0.00 0.00
4:53 am 04:53 Mostly Cloudy with Mist and Fog 30 -1.1 28 -2.2 92 92 S 5 7 29.95 1014 2 2 0.00 0.00
4:57 am 04:57 Cloudy with Mist and Fog 31 -0.6 29 -1.7 92 92 SSE 3 6 29.97 1015 1 2 0.00 0.00
5:28 am 05:28 Mostly Cloudy with Mist and Fog 30 -1.1 28 -2.2 92 92 SE 7 11 29.97 1015 1 1 0.00 0.00
5:51 am 05:51 Mostly Cloudy with Freezing Fog 30 -1 28 -2 93 93 SSE 5 7 29.97 1015 0 0 0.00 0.00
5:53 am 05:53 Mostly Cloudy with Freezing Fog 30 -1.1 29 -1.7 96 96 Calm 29.93 1014 0 0 0.00 0.00
6:14 am 06:14 Mostly Cloudy with Freezing Fog 30 -1 28 -2 93 93 Calm 29.97 1015 0 0 0.00 0.00
6:53 am 06:53 Mostly Cloudy with Freezing Fog 31 -0.6 30 -1.1 96 96 ESE 7 11 29.91 1013 0 0 0.00 0.00
7:16 am 07:16 Mostly Cloudy with Freezing Fog 31 -0.6 29 -1.7 92 92 SE 8 13 29.94 1014 0 0 0.00 0.00
7:25 am 07:25 Mostly Cloudy with Freezing Fog 31 -0.6 29 -1.7 92 92 ESE 7 11 29.94 1014 0 0 0.00 0.00
7:44 am 07:44 Mostly Cloudy with Freezing Fog 30 -1 28 -2 93 93 SE 7 11 29.94 1014 1 2 0.00 0.00
7:53 am 07:53 Mostly Cloudy with Freezing Fog 31 -0.6 30 -1.1 96 96 ESE 6 9 29.89 1012 1 2 0.00 0.00
8:53 am 08:53 Mostly Cloudy with Freezing Fog 31 -0.6 30 -1.1 96 96 ESE 10 17 29.87 1012 1 2 0.00 0.00
9:33 am 09:33 Mostly Cloudy with Fog 32 0 31 -0.6 96 96 ESE 8 13 29.88 1012 0 0 0.00 0.00
9:53 am 09:53 Mostly Cloudy with Fog 32 0 32 0 100 100 ESE 9 15 29.85 1011 0 0 0.00 0.00
10:53 am 10:53 Mostly Cloudy with Fog 34 1.1 33 0.6 97 97 ESE 10 17 29.82 1010 0 0 0.00 0.00
11:03 am 11:03 Mostly Cloudy with Fog 36 2 34 1 93 93 SE 10 17 29.85 1011 1 1 0.00 0.00
11:37 am 11:37 Cloudy with Mist and Fog 36 2.2 34 1.1 93 93 ESE 13 20 29.80 1009 2 3 0.00 0.00
11:53 am 11:53 Cloudy with Mist and Fog 36 2.2 34 1.1 93 93 ESE 15 24 29.78 1008 2 3 0.00 0.00
12:37 pm 12:37 Cloudy with Mist and Fog 36 2.2 34 1.1 93 93 ESE 15 24 29.80 1009 3 5 0.00 0.00
12:53 pm 12:53 Cloudy with Mist and Fog 36 2.2 34 1.1 93 93 ESE 14 22 29.74 1007 3 5 0.00 0.00
1:49 pm 13:49 Cloudy with Mist and Fog 37 3 34 1 87 87 ESE 14 22 29.71 1006 5 8 0.00 0.00
1:53 pm 13:53 Cloudy with Mist and Fog 37 2.8 35 1.7 93 93 ESE 15 24 29.70 1006 6 10 0.00 0.00
2:34 pm 14:34 Cloudy 39 3.9 35 1.7 86 86 ESE 13 20 29.68 1005 9 14 0.00 0.00
2:53 pm 14:53 Cloudy 39 3.9 35 1.7 86 86 ESE 13 20 29.65 1004 9 14 0.00 0.00
3:37 pm 15:37 Cloudy 40 4.4 35 1.7 83 83 ESE 17 28 29.62 1003 9 14 0.00 0.00
3:53 pm 15:53 Cloudy 40 4.4 35 1.7 83 83 ESE 17 28 29.62 1003 10 16 0.00 0.00
4:53 pm 16:53 Cloudy 42 5.6 36 2.2 79 79 ESE 14 22 29.57 1001 10 16 0.00 0.00
5:53 pm 17:53 Cloudy with Haze 42 5.6 37 2.8 82 82 ESE 15 24 29.54 1000 5 8 0.00 0.00
6:39 pm 18:39 Cloudy 42 5.6 37 2.8 82 82 SE 17 28 29.50 999 10 16 0.00 0.00
6:53 pm 18:53 Cloudy 42 5.6 38 3.3 85 85 ESE 17 28 29.49 999 9 14 0.00 0.00
7:48 pm 19:48 Cloudy with Light Rain 43 6 39 4 87 87 SE 21 33 29.44 997 4 6 0.00 0.00
7:53 pm 19:53 Cloudy with Light Rain 42 5.6 40 4.4 92 92 ESE 18 30 29.44 997 4 6 0.04 1.02
8:38 pm 20:38 Cloudy with Rain 43 6 39 4 87 87 ESE 20 31 29.41 996 4 6 0.00 0.00
8:53 pm 20:53 Cloudy with Light Rain 44 6.7 41 5 89 89 SE 15 24 29.38 995 5 8 0.10 2.54
9:53 pm 21:53 Cloudy with Light Rain 44 6.7 41 5 89 89 ESE 16 26 29.33 993 5 8 0.09 2.29
10:45 pm 22:45 Cloudy with Light Rain 45 7.2 42 5.6 90 90 SE 20 31 29.29 992 7 11 0.05 1.27
10:53 pm 22:53 Cloudy with Light Rain 45 7.2 42 5.6 90 90 SE 20 31 29.29 992 4 6 0.05 1.27
11:53 pm 23:53 Cloudy 45 7.2 42 5.6 90 90 SE 21 33 29.25 991 7 11 0.03 0.76

Powered by AerisWeather